Погода в Агое

Россия / Краснодарский край     44°08′48″N   39°02′24″E
темп.,
°C
ветер,
м/с
пор.,
м/с
влажн.,
%
обл.,
%
осадки,
мм/ч
давл.,
гПа
погр.,
м
17 сентября, пт
пт1700:00+14св4696100 0.7 1014187
03:00+14св479673 0.8 1013251
06:00+12св479099 0.0 1013182
09:00+16св467284 0.0 1013331
12:00+21св465051 0.0 1013939
15:00+23св23449 0.0 10131251
18:00+18всв11700 0.0 101437
21:00+14всв22790 0.0 101533
18 сентября, сб
сб1800:00+15св128578 0.1 1015101
03:00+16ссв118847 0.1 101533
06:00+15св229487 0.4 101443
09:00+19в127789 0.4 1015318
12:00+17юв2788100 0.3 1014391
15:00+21ю587197 0.5 1014960
18:00+18ю2282100 0.0 101490
21:00+15в1191100 0.0 101467
19 сентября, вс
вс1900:00+14в119348 0.0 101353
03:00+14вюв129298 0.0 101364
06:00+15вюв119398 0.0 101355
09:00+20ю1378100 0.2 1013301
12:00+21юз127498 0.1 1014398
15:00+19в118175 0.1 101223
18:00+19ю228262 0.0 101380
21:00+17ю238973 0.0 101399
20 сентября, пн
пн2000:00+17ююв249597 0.8 1013103
03:00+17ююз3697100 2.3 1013181
06:00+17ю2496100 2.4 1013138
09:00+19ю258795 3.1 1013437
12:00+22ю4763100 0.3 1013967
15:00+21ююз3682100 1.0 1013609
18:00+18ююз2293100 2.0 101397
21:00+17зюз229118 4.3 1015101
21 сентября, вт
вт2100:00+16зюз239489 0.2 1016135
03:00+16юз129697 2.6 1016110
06:00+16зюз229493 0.7 1017107
09:00+17зюз228319 0.8 1019525
12:00+20зюз335155 0.0 10191000
15:00+20зюз225092 0.0 1018883
18:00+17ссз1270100 0.0 101831
21:00+14св3366100 0.0 101758